Year,Month,Day,Hour,Minute,Value (Times are PST for temperature in C)
2015,06,21,00,00,9.60
2015,06,21,00,01,9.60
2015,06,21,00,02,9.60
2015,06,21,00,03,9.70
2015,06,21,00,04,9.70
2015,06,21,00,05,9.70
2015,06,21,00,06,9.60
2015,06,21,00,07,9.70
2015,06,21,00,08,9.70
2015,06,21,00,09,9.70
2015,06,21,00,10,9.70
2015,06,21,00,11,9.70
2015,06,21,00,12,9.70
2015,06,21,00,13,9.70
2015,06,21,00,14,9.70
2015,06,21,00,15,9.70
2015,06,21,00,16,9.70
2015,06,21,00,17,9.70
2015,06,21,00,18,9.70
2015,06,21,00,19,9.70
2015,06,21,00,20,9.80
2015,06,21,00,21,9.80
2015,06,21,00,22,9.80
2015,06,21,00,23,9.80
2015,06,21,00,24,9.80
2015,06,21,00,25,9.80
2015,06,21,00,26,9.80
2015,06,21,00,27,9.80
2015,06,21,00,28,9.80
2015,06,21,00,29,9.80
2015,06,21,00,30,9.80
2015,06,21,00,31,9.80
2015,06,21,00,32,9.80
2015,06,21,00,33,9.80
2015,06,21,00,34,9.80
2015,06,21,00,35,9.80
2015,06,21,00,36,9.70
2015,06,21,00,37,9.70
2015,06,21,00,38,9.70
2015,06,21,00,39,9.70
2015,06,21,00,40,9.70
2015,06,21,00,41,9.70
2015,06,21,00,42,9.70
2015,06,21,00,43,9.70
2015,06,21,00,44,9.70
2015,06,21,00,45,9.60
2015,06,21,00,46,9.60
2015,06,21,00,47,9.60
2015,06,21,00,48,9.60
2015,06,21,00,49,9.60
2015,06,21,00,50,9.60
2015,06,21,00,51,9.60
2015,06,21,00,52,9.60
2015,06,21,00,53,9.60
2015,06,21,00,54,9.60
2015,06,21,00,55,9.50
2015,06,21,00,56,9.50
2015,06,21,00,57,9.50
2015,06,21,00,58,9.40
2015,06,21,00,59,9.40
2015,06,21,01,00,9.40
2015,06,21,01,01,9.40
2015,06,21,01,02,9.40
2015,06,21,01,03,9.40
2015,06,21,01,04,9.40
2015,06,21,01,05,9.40
2015,06,21,01,06,9.40
2015,06,21,01,07,9.40
2015,06,21,01,08,9.40
2015,06,21,01,09,9.40
2015,06,21,01,10,9.40
2015,06,21,01,11,9.40
2015,06,21,01,12,9.40
2015,06,21,01,13,9.40
2015,06,21,01,14,9.30
2015,06,21,01,15,9.30
2015,06,21,01,16,9.30
2015,06,21,01,17,9.30
2015,06,21,01,18,9.30
2015,06,21,01,19,9.30
2015,06,21,01,20,9.30
2015,06,21,01,21,9.20
2015,06,21,01,22,9.20
2015,06,21,01,23,9.20
2015,06,21,01,24,9.20
2015,06,21,01,25,9.20
2015,06,21,01,26,9.10
2015,06,21,01,27,9.10
2015,06,21,01,28,9.10
2015,06,21,01,29,9.10
2015,06,21,01,30,9.10
2015,06,21,01,31,9.00
2015,06,21,01,32,9.00
2015,06,21,01,33,9.00
2015,06,21,01,34,9.00
2015,06,21,01,35,8.90
2015,06,21,01,36,8.90
2015,06,21,01,37,8.90
2015,06,21,01,38,8.90
2015,06,21,01,39,8.90
2015,06,21,01,40,8.80
2015,06,21,01,41,8.80
2015,06,21,01,42,8.80
2015,06,21,01,43,8.80
2015,06,21,01,44,8.80
2015,06,21,01,45,8.80
2015,06,21,01,46,8.80
2015,06,21,01,47,8.80
2015,06,21,01,48,8.80
2015,06,21,01,49,8.80
2015,06,21,01,50,8.80
2015,06,21,01,51,8.80
2015,06,21,01,52,8.80
2015,06,21,01,53,8.80
2015,06,21,01,54,8.80
2015,06,21,01,55,8.80
2015,06,21,01,56,8.80
2015,06,21,01,57,8.80
2015,06,21,01,58,8.80
2015,06,21,01,59,8.80
2015,06,21,02,00,8.90
2015,06,21,02,01,8.90
2015,06,21,02,02,8.90
2015,06,21,02,03,8.90
2015,06,21,02,04,8.90
2015,06,21,02,05,8.80
2015,06,21,02,06,8.80
2015,06,21,02,07,8.80
2015,06,21,02,08,8.80
2015,06,21,02,09,8.90
2015,06,21,02,10,8.90
2015,06,21,02,11,8.90
2015,06,21,02,12,9.00
2015,06,21,02,13,9.00
2015,06,21,02,14,9.00
2015,06,21,02,15,9.00
2015,06,21,02,16,9.00
2015,06,21,02,17,8.90
2015,06,21,02,18,8.90
2015,06,21,02,19,8.90
2015,06,21,02,20,8.80
2015,06,21,02,21,8.80
2015,06,21,02,22,8.80
2015,06,21,02,23,8.80
2015,06,21,02,24,8.70
2015,06,21,02,25,8.70
2015,06,21,02,26,8.70
2015,06,21,02,27,8.70
2015,06,21,02,28,8.70
2015,06,21,02,29,8.70
2015,06,21,02,30,8.70
2015,06,21,02,31,8.70
2015,06,21,02,32,8.70
2015,06,21,02,33,8.70
2015,06,21,02,34,8.60
2015,06,21,02,35,8.60
2015,06,21,02,36,8.60
2015,06,21,02,37,8.60
2015,06,21,02,38,8.60
2015,06,21,02,39,8.60
2015,06,21,02,40,8.60
2015,06,21,02,41,8.60
2015,06,21,02,42,8.60
2015,06,21,02,43,8.60
2015,06,21,02,44,8.70
2015,06,21,02,45,8.70
2015,06,21,02,46,8.70
2015,06,21,02,47,8.70
2015,06,21,02,48,8.70
2015,06,21,02,49,8.70
2015,06,21,02,50,8.70
2015,06,21,02,51,8.80
2015,06,21,02,52,8.80
2015,06,21,02,53,8.80
2015,06,21,02,54,8.80
2015,06,21,02,55,8.80
2015,06,21,02,56,8.80
2015,06,21,02,57,8.80
2015,06,21,02,58,8.80
2015,06,21,02,59,8.80
2015,06,21,03,00,8.90
2015,06,21,03,01,8.90
2015,06,21,03,02,8.90
2015,06,21,03,03,8.90
2015,06,21,03,04,8.90
2015,06,21,03,05,8.90
2015,06,21,03,06,8.90
2015,06,21,03,07,8.90
2015,06,21,03,08,8.90
2015,06,21,03,09,8.90
2015,06,21,03,10,8.90
2015,06,21,03,11,8.80
2015,06,21,03,12,8.80
2015,06,21,03,13,8.80
2015,06,21,03,14,8.80
2015,06,21,03,15,8.70
2015,06,21,03,16,8.70
2015,06,21,03,17,8.70
2015,06,21,03,18,8.70
2015,06,21,03,19,8.70
2015,06,21,03,20,8.70
2015,06,21,03,21,8.60
2015,06,21,03,22,8.60
2015,06,21,03,23,8.60
2015,06,21,03,24,8.60
2015,06,21,03,25,8.60
2015,06,21,03,26,8.60
2015,06,21,03,27,8.60
2015,06,21,03,28,8.70
2015,06,21,03,29,8.70
2015,06,21,03,30,8.70
2015,06,21,03,31,8.70
2015,06,21,03,32,8.70
2015,06,21,03,33,8.60
2015,06,21,03,34,8.60
2015,06,21,03,35,8.60
2015,06,21,03,36,8.60
2015,06,21,03,37,8.60
2015,06,21,03,38,8.60
2015,06,21,03,39,8.60
2015,06,21,03,40,8.60
2015,06,21,03,41,8.60
2015,06,21,03,42,8.60
2015,06,21,03,43,8.60
2015,06,21,03,44,8.60
2015,06,21,03,45,8.60
2015,06,21,03,46,8.60
2015,06,21,03,47,8.60
2015,06,21,03,48,8.60
2015,06,21,03,49,8.60
2015,06,21,03,50,8.50
2015,06,21,03,51,8.50
2015,06,21,03,52,8.50
2015,06,21,03,53,8.50
2015,06,21,03,54,8.40
2015,06,21,03,55,8.40
2015,06,21,03,56,8.40
2015,06,21,03,57,8.40
2015,06,21,03,58,8.40
2015,06,21,03,59,8.40
2015,06,21,04,00,8.40
2015,06,21,04,01,8.40
2015,06,21,04,02,8.40
2015,06,21,04,03,8.50
2015,06,21,04,04,8.50
2015,06,21,04,05,8.50
2015,06,21,04,06,8.50
2015,06,21,04,07,8.50
2015,06,21,04,08,8.50
2015,06,21,04,09,8.50
2015,06,21,04,10,8.40
2015,06,21,04,11,8.40
2015,06,21,04,12,8.40
2015,06,21,04,13,8.30
2015,06,21,04,14,8.30
2015,06,21,04,15,8.30
2015,06,21,04,16,8.30
2015,06,21,04,17,8.30
2015,06,21,04,18,8.30
2015,06,21,04,19,8.30
2015,06,21,04,20,8.20
2015,06,21,04,21,8.20
2015,06,21,04,22,8.20
2015,06,21,04,23,8.30
2015,06,21,04,24,8.30
2015,06,21,04,25,8.30
2015,06,21,04,26,8.30
2015,06,21,04,27,8.30
2015,06,21,04,28,8.30
2015,06,21,04,29,8.30
2015,06,21,04,30,8.20
2015,06,21,04,31,8.20
2015,06,21,04,32,8.20
2015,06,21,04,33,8.20
2015,06,21,04,34,8.20
2015,06,21,04,35,8.20
2015,06,21,04,36,8.20
2015,06,21,04,37,8.20
2015,06,21,04,38,8.20
2015,06,21,04,39,8.20
2015,06,21,04,40,8.20
2015,06,21,04,41,8.20
2015,06,21,04,42,8.20
2015,06,21,04,43,8.20
2015,06,21,04,44,8.20
2015,06,21,04,45,8.20
2015,06,21,04,46,8.20
2015,06,21,04,47,8.10
2015,06,21,04,48,8.10
2015,06,21,04,49,8.10
2015,06,21,04,50,8.10
2015,06,21,04,51,8.10
2015,06,21,04,52,8.10
2015,06,21,04,53,8.10
2015,06,21,04,54,8.10
2015,06,21,04,55,8.10
2015,06,21,04,56,8.10
2015,06,21,04,57,8.10
2015,06,21,04,58,8.10
2015,06,21,04,59,8.10
2015,06,21,05,00,8.10
2015,06,21,05,01,8.10
2015,06,21,05,02,8.10
2015,06,21,05,03,8.10
2015,06,21,05,04,8.10
2015,06,21,05,05,8.10
2015,06,21,05,06,8.00
2015,06,21,05,07,8.00
2015,06,21,05,08,8.00
2015,06,21,05,09,8.00
2015,06,21,05,10,8.00
2015,06,21,05,11,8.00
2015,06,21,05,12,8.00
2015,06,21,05,13,8.00
2015,06,21,05,14,8.00
2015,06,21,05,15,8.00
2015,06,21,05,16,7.90
2015,06,21,05,17,7.90
2015,06,21,05,18,7.90
2015,06,21,05,19,7.90
2015,06,21,05,20,7.90
2015,06,21,05,21,7.90
2015,06,21,05,22,7.90
2015,06,21,05,23,7.90
2015,06,21,05,24,7.90
2015,06,21,05,25,7.90
2015,06,21,05,26,7.90
2015,06,21,05,27,7.90
2015,06,21,05,28,7.80
2015,06,21,05,29,7.80
2015,06,21,05,30,7.80
2015,06,21,05,31,7.80
2015,06,21,05,32,7.80
2015,06,21,05,33,7.80
2015,06,21,05,34,7.80
2015,06,21,05,35,7.80
2015,06,21,05,36,7.90
2015,06,21,05,37,7.90
2015,06,21,05,38,7.90
2015,06,21,05,39,8.00
2015,06,21,05,40,8.00
2015,06,21,05,41,8.00
2015,06,21,05,42,8.00
2015,06,21,05,43,8.00
2015,06,21,05,44,8.00
2015,06,21,05,45,8.00
2015,06,21,05,46,8.00
2015,06,21,05,47,8.00
2015,06,21,05,48,8.00
2015,06,21,05,49,8.00
2015,06,21,05,50,8.00
2015,06,21,05,51,8.00
2015,06,21,05,52,8.00
2015,06,21,05,53,8.00
2015,06,21,05,54,8.00
2015,06,21,05,55,8.00
2015,06,21,05,56,8.00
2015,06,21,05,57,8.00
2015,06,21,05,58,8.00
2015,06,21,05,59,8.10
2015,06,21,06,00,8.10
2015,06,21,06,01,8.10
2015,06,21,06,02,8.20
2015,06,21,06,03,8.20
2015,06,21,06,04,8.20
2015,06,21,06,05,8.30
2015,06,21,06,06,8.30
2015,06,21,06,07,8.30
2015,06,21,06,08,8.30
2015,06,21,06,09,8.30
2015,06,21,06,10,8.30
2015,06,21,06,11,8.30
2015,06,21,06,12,8.30
2015,06,21,06,13,8.30
2015,06,21,06,14,8.30
2015,06,21,06,15,8.30
2015,06,21,06,16,8.30
2015,06,21,06,17,8.30
2015,06,21,06,18,8.40
2015,06,21,06,19,8.40
2015,06,21,06,20,8.40
2015,06,21,06,21,8.50
2015,06,21,06,22,8.50
2015,06,21,06,23,8.60
2015,06,21,06,24,8.60
2015,06,21,06,25,8.70
2015,06,21,06,26,8.70
2015,06,21,06,27,8.70
2015,06,21,06,28,8.80
2015,06,21,06,29,8.80
2015,06,21,06,30,8.80
2015,06,21,06,31,8.80
2015,06,21,06,32,8.80
2015,06,21,06,33,8.90
2015,06,21,06,34,8.90
2015,06,21,06,35,9.00
2015,06,21,06,36,9.00
2015,06,21,06,37,9.10
2015,06,21,06,38,9.10
2015,06,21,06,39,9.20
2015,06,21,06,40,9.20
2015,06,21,06,41,9.20
2015,06,21,06,42,9.20
2015,06,21,06,43,9.30
2015,06,21,06,44,9.30
2015,06,21,06,45,9.40
2015,06,21,06,46,9.40
2015,06,21,06,47,9.50
2015,06,21,06,48,9.60
2015,06,21,06,49,9.70
2015,06,21,06,50,9.70
2015,06,21,06,51,9.80
2015,06,21,06,52,9.80
2015,06,21,06,53,9.80
2015,06,21,06,54,9.90
2015,06,21,06,55,9.90
2015,06,21,06,56,9.90
2015,06,21,06,57,10.00
2015,06,21,06,58,10.00
2015,06,21,06,59,10.10
2015,06,21,07,00,10.10
2015,06,21,07,01,10.10
2015,06,21,07,02,10.10
2015,06,21,07,03,10.20
2015,06,21,07,04,10.20
2015,06,21,07,05,10.20
2015,06,21,07,06,10.20
2015,06,21,07,07,10.20
2015,06,21,07,08,10.30
2015,06,21,07,09,10.30
2015,06,21,07,10,10.30
2015,06,21,07,11,10.30
2015,06,21,07,12,10.40
2015,06,21,07,13,10.40
2015,06,21,07,14,10.40
2015,06,21,07,15,10.50
2015,06,21,07,16,10.50
2015,06,21,07,17,10.60
2015,06,21,07,18,10.60
2015,06,21,07,19,10.60
2015,06,21,07,20,10.70
2015,06,21,07,21,10.70
2015,06,21,07,22,10.80
2015,06,21,07,23,10.90
2015,06,21,07,24,10.90
2015,06,21,07,25,11.00
2015,06,21,07,26,11.00
2015,06,21,07,27,11.10
2015,06,21,07,28,11.20
2015,06,21,07,29,11.20
2015,06,21,07,30,11.30
2015,06,21,07,31,11.40
2015,06,21,07,32,11.40
2015,06,21,07,33,11.50
2015,06,21,07,34,11.60
2015,06,21,07,35,11.70
2015,06,21,07,36,11.80
2015,06,21,07,37,11.80
2015,06,21,07,38,11.90
2015,06,21,07,39,12.00
2015,06,21,07,40,12.10
2015,06,21,07,41,12.20
2015,06,21,07,42,12.20
2015,06,21,07,43,12.30
2015,06,21,07,44,12.30
2015,06,21,07,45,12.40
2015,06,21,07,46,12.50
2015,06,21,07,47,12.60
2015,06,21,07,48,12.60
2015,06,21,07,49,12.70
2015,06,21,07,50,12.70
2015,06,21,07,51,12.80
2015,06,21,07,52,12.90
2015,06,21,07,53,12.90
2015,06,21,07,54,13.00
2015,06,21,07,55,13.00
2015,06,21,07,56,13.10
2015,06,21,07,57,13.10
2015,06,21,07,58,13.10
2015,06,21,07,59,13.20
2015,06,21,08,00,13.10
2015,06,21,08,01,13.20
2015,06,21,08,02,13.20
2015,06,21,08,03,13.20
2015,06,21,08,04,13.20
2015,06,21,08,05,13.30
2015,06,21,08,06,13.30
2015,06,21,08,07,13.40
2015,06,21,08,08,13.50
2015,06,21,08,09,13.60
2015,06,21,08,10,13.70
2015,06,21,08,11,13.80
2015,06,21,08,12,13.80
2015,06,21,08,13,14.00
2015,06,21,08,14,14.10
2015,06,21,08,15,14.20
2015,06,21,08,16,14.20
2015,06,21,08,17,14.30
2015,06,21,08,18,14.40
2015,06,21,08,19,14.50
2015,06,21,08,20,14.60
2015,06,21,08,21,14.70
2015,06,21,08,22,14.80
2015,06,21,08,23,14.80
2015,06,21,08,24,14.90
2015,06,21,08,25,15.00
2015,06,21,08,26,15.00
2015,06,21,08,27,15.10
2015,06,21,08,28,15.10
2015,06,21,08,29,15.20
2015,06,21,08,30,15.30
2015,06,21,08,31,15.40
2015,06,21,08,32,15.50
2015,06,21,08,33,15.60
2015,06,21,08,34,15.70
2015,06,21,08,35,15.80
2015,06,21,08,36,15.80
2015,06,21,08,37,15.90
2015,06,21,08,38,15.90
2015,06,21,08,39,15.90
2015,06,21,08,40,15.90
2015,06,21,08,41,16.00
2015,06,21,08,42,16.00
2015,06,21,08,43,16.10
2015,06,21,08,44,16.10
2015,06,21,08,45,16.20
2015,06,21,08,46,16.30
2015,06,21,08,47,16.40
2015,06,21,08,48,16.50
2015,06,21,08,49,16.60
2015,06,21,08,50,16.60
2015,06,21,08,51,16.70
2015,06,21,08,52,16.80
2015,06,21,08,53,16.80
2015,06,21,08,54,16.80
2015,06,21,08,55,16.90
2015,06,21,08,56,16.90
2015,06,21,08,57,16.90
2015,06,21,08,58,16.90
2015,06,21,08,59,16.90
2015,06,21,09,00,17.00
2015,06,21,09,01,17.00
2015,06,21,09,02,17.00
2015,06,21,09,03,17.00
2015,06,21,09,04,17.10
2015,06,21,09,05,17.10
2015,06,21,09,06,17.10
2015,06,21,09,07,17.10
2015,06,21,09,08,17.20
2015,06,21,09,09,17.20
2015,06,21,09,10,17.30
2015,06,21,09,11,17.30
2015,06,21,09,12,17.30
2015,06,21,09,13,17.40
2015,06,21,09,14,17.40
2015,06,21,09,15,17.40
2015,06,21,09,16,17.40
2015,06,21,09,17,17.40
2015,06,21,09,18,17.50
2015,06,21,09,19,17.50
2015,06,21,09,20,17.60
2015,06,21,09,21,17.60
2015,06,21,09,22,17.70
2015,06,21,09,23,17.70
2015,06,21,09,24,17.70
2015,06,21,09,25,17.70
2015,06,21,09,26,17.70
2015,06,21,09,27,17.60
2015,06,21,09,28,17.60
2015,06,21,09,29,17.60
2015,06,21,09,30,17.60
2015,06,21,09,31,17.60
2015,06,21,09,32,17.60
2015,06,21,09,33,17.60
2015,06,21,09,34,17.50
2015,06,21,09,35,17.50
2015,06,21,09,36,17.50
2015,06,21,09,37,17.50
2015,06,21,09,38,17.50
2015,06,21,09,39,17.60
2015,06,21,09,40,17.60
2015,06,21,09,41,17.60
2015,06,21,09,42,17.70
2015,06,21,09,43,17.80
2015,06,21,09,44,17.90
2015,06,21,09,45,17.90
2015,06,21,09,46,18.00
2015,06,21,09,47,18.10
2015,06,21,09,48,18.20
2015,06,21,09,49,18.20
2015,06,21,09,50,18.30
2015,06,21,09,51,18.40
2015,06,21,09,52,18.40
2015,06,21,09,53,18.50
2015,06,21,09,54,18.50
2015,06,21,09,55,18.60
2015,06,21,09,56,18.70
2015,06,21,09,57,18.70
2015,06,21,09,58,18.70
2015,06,21,09,59,18.70
2015,06,21,10,00,18.70
2015,06,21,10,01,18.70
2015,06,21,10,02,18.70
2015,06,21,10,03,18.70
2015,06,21,10,04,18.70
2015,06,21,10,05,18.70
2015,06,21,10,06,18.70
2015,06,21,10,07,18.70
2015,06,21,10,08,18.70
2015,06,21,10,09,18.80
2015,06,21,10,10,18.80
2015,06,21,10,11,18.80
2015,06,21,10,12,18.80
2015,06,21,10,13,18.80
2015,06,21,10,14,18.80
2015,06,21,10,15,18.80
2015,06,21,10,16,18.80
2015,06,21,10,17,18.90
2015,06,21,10,18,19.00
2015,06,21,10,19,19.10
2015,06,21,10,20,19.10
2015,06,21,10,21,19.20
2015,06,21,10,22,19.20
2015,06,21,10,23,19.10
2015,06,21,10,24,19.10
2015,06,21,10,25,19.10
2015,06,21,10,26,19.00
2015,06,21,10,27,18.90
2015,06,21,10,28,18.90
2015,06,21,10,29,18.90
2015,06,21,10,30,18.90
2015,06,21,10,31,18.90
2015,06,21,10,32,18.80
2015,06,21,10,33,18.80
2015,06,21,10,34,18.80
2015,06,21,10,35,18.70
2015,06,21,10,36,18.70
2015,06,21,10,37,18.80
2015,06,21,10,38,18.80
2015,06,21,10,39,19.00
2015,06,21,10,40,19.10
2015,06,21,10,41,19.20
2015,06,21,10,42,19.40
2015,06,21,10,43,19.50
2015,06,21,10,44,19.60
2015,06,21,10,45,19.70
2015,06,21,10,46,19.80
2015,06,21,10,47,19.90
2015,06,21,10,48,20.00
2015,06,21,10,49,20.10
2015,06,21,10,50,20.20
2015,06,21,10,51,20.30
2015,06,21,10,52,20.40
2015,06,21,10,53,20.60
2015,06,21,10,54,20.70
2015,06,21,10,55,20.70
2015,06,21,10,56,20.80
2015,06,21,10,57,20.90
2015,06,21,10,58,21.00
2015,06,21,10,59,21.00
2015,06,21,11,00,21.10
2015,06,21,11,01,21.20
2015,06,21,11,02,21.20
2015,06,21,11,03,21.20
2015,06,21,11,04,21.20
2015,06,21,11,05,21.10
2015,06,21,11,06,21.10
2015,06,21,11,07,21.00
2015,06,21,11,08,20.90
2015,06,21,11,09,20.90
2015,06,21,11,10,20.90
2015,06,21,11,11,21.00
2015,06,21,11,12,21.10
2015,06,21,11,13,21.20
2015,06,21,11,14,21.30
2015,06,21,11,15,21.30
2015,06,21,11,16,21.20
2015,06,21,11,17,21.10
2015,06,21,11,18,21.10
2015,06,21,11,19,21.10
2015,06,21,11,20,21.10
2015,06,21,11,21,21.10
2015,06,21,11,22,21.20
2015,06,21,11,23,21.20
2015,06,21,11,24,21.10
2015,06,21,11,25,21.10
2015,06,21,11,26,21.10
2015,06,21,11,27,21.00
2015,06,21,11,28,21.00
2015,06,21,11,29,21.00
2015,06,21,11,30,21.10
2015,06,21,11,31,21.10
2015,06,21,11,32,21.20
2015,06,21,11,33,21.20
2015,06,21,11,34,21.10
2015,06,21,11,35,21.00
2015,06,21,11,36,21.00
2015,06,21,11,37,21.10
2015,06,21,11,38,21.10
2015,06,21,11,39,21.20
2015,06,21,11,40,21.20
2015,06,21,11,41,21.20
2015,06,21,11,42,21.20
2015,06,21,11,43,21.00
2015,06,21,11,44,20.90
2015,06,21,11,45,20.80
2015,06,21,11,46,20.80
2015,06,21,11,47,20.80
2015,06,21,11,48,20.90
2015,06,21,11,49,20.90
2015,06,21,11,50,21.00
2015,06,21,11,51,21.10
2015,06,21,11,52,21.20
2015,06,21,11,53,21.20
2015,06,21,11,54,21.20
2015,06,21,11,55,21.10
2015,06,21,11,56,20.90
2015,06,21,11,57,20.70
2015,06,21,11,58,20.60
2015,06,21,11,59,20.50
2015,06,21,12,00,20.40
2015,06,21,12,01,20.30
2015,06,21,12,02,20.30
2015,06,21,12,03,20.30
2015,06,21,12,04,20.40
2015,06,21,12,05,20.50
2015,06,21,12,06,20.60
2015,06,21,12,07,20.70
2015,06,21,12,08,20.70
2015,06,21,12,09,20.70
2015,06,21,12,10,20.70
2015,06,21,12,11,20.60
2015,06,21,12,12,20.50
2015,06,21,12,13,20.40
2015,06,21,12,14,20.30
2015,06,21,12,15,20.30
2015,06,21,12,16,20.40
2015,06,21,12,17,20.50
2015,06,21,12,18,20.60
2015,06,21,12,19,20.70
2015,06,21,12,20,20.70
2015,06,21,12,21,20.70
2015,06,21,12,22,20.70
2015,06,21,12,23,20.70
2015,06,21,12,24,20.70
2015,06,21,12,25,20.70
2015,06,21,12,26,20.70
2015,06,21,12,27,20.70
2015,06,21,12,28,20.70
2015,06,21,12,29,20.70
2015,06,21,12,30,20.70
2015,06,21,12,31,20.70
2015,06,21,12,32,20.70
2015,06,21,12,33,20.70
2015,06,21,12,34,20.80
2015,06,21,12,35,20.70
2015,06,21,12,36,20.70
2015,06,21,12,37,20.70
2015,06,21,12,38,20.70
2015,06,21,12,39,20.80
2015,06,21,12,40,20.90
2015,06,21,12,41,21.10
2015,06,21,12,42,21.10
2015,06,21,12,43,21.10
2015,06,21,12,44,21.10
2015,06,21,12,45,21.10
2015,06,21,12,46,21.10
2015,06,21,12,47,21.00
2015,06,21,12,48,21.10
2015,06,21,12,49,21.10
2015,06,21,12,50,21.20
2015,06,21,12,51,21.20
2015,06,21,12,52,21.20
2015,06,21,12,53,21.20
2015,06,21,12,54,21.20
2015,06,21,12,55,21.20
2015,06,21,12,56,21.20
2015,06,21,12,57,21.20
2015,06,21,12,58,21.20
2015,06,21,12,59,21.20
2015,06,21,13,00,21.30
2015,06,21,13,01,21.30
2015,06,21,13,02,21.30
2015,06,21,13,03,21.30
2015,06,21,13,04,21.30
2015,06,21,13,05,21.30
2015,06,21,13,06,21.30
2015,06,21,13,07,21.40
2015,06,21,13,08,21.40
2015,06,21,13,09,21.40
2015,06,21,13,10,21.50
2015,06,21,13,11,21.50
2015,06,21,13,12,21.60
2015,06,21,13,13,21.60
2015,06,21,13,14,21.70
2015,06,21,13,15,21.70
2015,06,21,13,16,21.90
2015,06,21,13,17,22.10
2015,06,21,13,18,22.10
2015,06,21,13,19,22.10
2015,06,21,13,20,22.00
2015,06,21,13,21,22.00
2015,06,21,13,22,21.90
2015,06,21,13,23,21.90
2015,06,21,13,24,21.90
2015,06,21,13,25,21.90
2015,06,21,13,26,21.90
2015,06,21,13,27,21.90
2015,06,21,13,28,21.80
2015,06,21,13,29,21.80
2015,06,21,13,30,21.60
2015,06,21,13,31,21.50
2015,06,21,13,32,21.40
2015,06,21,13,33,21.20
2015,06,21,13,34,21.10
2015,06,21,13,35,21.00
2015,06,21,13,36,20.80
2015,06,21,13,37,20.60
2015,06,21,13,38,20.40
2015,06,21,13,39,20.30
2015,06,21,13,40,20.30
2015,06,21,13,41,20.30
2015,06,21,13,42,20.40
2015,06,21,13,43,20.50
2015,06,21,13,44,20.60
2015,06,21,13,45,20.70
2015,06,21,13,46,20.80
2015,06,21,13,47,20.80
2015,06,21,13,48,20.80
2015,06,21,13,49,20.80
2015,06,21,13,50,20.70
2015,06,21,13,51,20.60
2015,06,21,13,52,20.60
2015,06,21,13,53,20.60
2015,06,21,13,54,20.60
2015,06,21,13,55,20.60
2015,06,21,13,56,20.70
2015,06,21,13,57,20.70
2015,06,21,13,58,20.80
2015,06,21,13,59,20.70
2015,06,21,14,00,20.70
2015,06,21,14,01,20.70
2015,06,21,14,02,20.70
2015,06,21,14,03,20.70
2015,06,21,14,04,20.80
2015,06,21,14,05,20.80
2015,06,21,14,06,20.80
2015,06,21,14,07,20.80
2015,06,21,14,08,20.80
2015,06,21,14,09,20.80
2015,06,21,14,10,20.80
2015,06,21,14,11,20.90
2015,06,21,14,12,20.90
2015,06,21,14,13,21.00
2015,06,21,14,14,21.10
2015,06,21,14,15,21.20
2015,06,21,14,16,21.20
2015,06,21,14,17,21.30
2015,06,21,14,18,21.40
2015,06,21,14,19,21.40
2015,06,21,14,20,21.40
2015,06,21,14,21,21.40
2015,06,21,14,22,21.40
2015,06,21,14,23,21.30
2015,06,21,14,24,21.30
2015,06,21,14,25,21.40
2015,06,21,14,26,21.40
2015,06,21,14,27,21.50
2015,06,21,14,28,21.50
2015,06,21,14,29,21.50
2015,06,21,14,30,21.50
2015,06,21,14,31,21.50
2015,06,21,14,32,21.50
2015,06,21,14,33,21.60
2015,06,21,14,34,21.60
2015,06,21,14,35,21.60
2015,06,21,14,36,21.60
2015,06,21,14,37,21.60
2015,06,21,14,38,21.60
2015,06,21,14,39,21.70
2015,06,21,14,40,21.70
2015,06,21,14,41,21.70
2015,06,21,14,42,21.70
2015,06,21,14,43,21.60
2015,06,21,14,44,21.60
2015,06,21,14,45,21.70
2015,06,21,14,46,21.70
2015,06,21,14,47,21.70
2015,06,21,14,48,21.70
2015,06,21,14,49,21.80
2015,06,21,14,50,21.80
2015,06,21,14,51,21.80
2015,06,21,14,52,21.90
2015,06,21,14,53,21.90
2015,06,21,14,54,22.00
2015,06,21,14,55,22.10
2015,06,21,14,56,22.10
2015,06,21,14,57,22.20
2015,06,21,14,58,22.20
2015,06,21,14,59,22.30
2015,06,21,15,00,22.30
2015,06,21,15,01,22.30
2015,06,21,15,02,22.30
2015,06,21,15,03,22.30
2015,06,21,15,04,22.20
2015,06,21,15,05,22.20
2015,06,21,15,06,22.10
2015,06,21,15,07,21.90
2015,06,21,15,08,21.80
2015,06,21,15,09,21.70
2015,06,21,15,10,21.70
2015,06,21,15,11,21.80
2015,06,21,15,12,21.90
2015,06,21,15,13,22.00
2015,06,21,15,14,22.00
2015,06,21,15,15,22.10
2015,06,21,15,16,22.10
2015,06,21,15,17,22.10
2015,06,21,15,18,22.20
2015,06,21,15,19,22.20
2015,06,21,15,20,22.20
2015,06,21,15,21,22.10
2015,06,21,15,22,22.10
2015,06,21,15,23,22.10
2015,06,21,15,24,22.10
2015,06,21,15,25,22.10
2015,06,21,15,26,22.10
2015,06,21,15,27,22.20
2015,06,21,15,28,22.30
2015,06,21,15,29,22.40
2015,06,21,15,30,22.40
2015,06,21,15,31,22.50
2015,06,21,15,32,22.60
2015,06,21,15,33,22.60
2015,06,21,15,34,22.70
2015,06,21,15,35,22.90
2015,06,21,15,36,23.00
2015,06,21,15,37,23.10
2015,06,21,15,38,23.20
2015,06,21,15,39,23.20
2015,06,21,15,40,23.30
2015,06,21,15,41,23.30
2015,06,21,15,42,23.40
2015,06,21,15,43,23.40
2015,06,21,15,44,23.40
2015,06,21,15,45,23.40
2015,06,21,15,46,23.50
2015,06,21,15,47,23.60
2015,06,21,15,48,23.60
2015,06,21,15,49,23.70
2015,06,21,15,50,23.70
2015,06,21,15,51,23.70
2015,06,21,15,52,23.80
2015,06,21,15,53,23.80
2015,06,21,15,54,23.80
2015,06,21,15,55,23.80
2015,06,21,15,56,23.80
2015,06,21,15,57,23.90
2015,06,21,15,58,23.90
2015,06,21,15,59,23.90
2015,06,21,16,00,24.00
2015,06,21,16,01,24.00
2015,06,21,16,02,23.90
2015,06,21,16,03,23.80
2015,06,21,16,04,23.80
2015,06,21,16,05,23.80
2015,06,21,16,06,23.80
2015,06,21,16,07,23.70
2015,06,21,16,08,23.70
2015,06,21,16,09,23.60
2015,06,21,16,10,23.50
2015,06,21,16,11,23.40
2015,06,21,16,12,23.40
2015,06,21,16,13,23.40
2015,06,21,16,14,23.30
2015,06,21,16,15,23.30
2015,06,21,16,16,23.40
2015,06,21,16,17,23.50
2015,06,21,16,18,23.60
2015,06,21,16,19,23.70
2015,06,21,16,20,23.70
2015,06,21,16,21,23.70
2015,06,21,16,22,23.80
2015,06,21,16,23,23.80
2015,06,21,16,24,23.80
2015,06,21,16,25,23.80
2015,06,21,16,26,23.80
2015,06,21,16,27,23.80
2015,06,21,16,28,23.80
2015,06,21,16,29,23.80
2015,06,21,16,30,23.70
2015,06,21,16,31,23.60
2015,06,21,16,32,23.50
2015,06,21,16,33,23.50
2015,06,21,16,34,23.60
2015,06,21,16,35,23.60
2015,06,21,16,36,23.60
2015,06,21,16,37,23.70
2015,06,21,16,38,23.70
2015,06,21,16,39,23.70
2015,06,21,16,40,23.70
2015,06,21,16,41,23.70
2015,06,21,16,42,23.80
2015,06,21,16,43,23.80
2015,06,21,16,44,23.80
2015,06,21,16,45,23.80
2015,06,21,16,46,23.70
2015,06,21,16,47,23.60
2015,06,21,16,48,23.60
2015,06,21,16,49,23.60
2015,06,21,16,50,23.70
2015,06,21,16,51,23.70
2015,06,21,16,52,23.90
2015,06,21,16,53,24.00
2015,06,21,16,54,24.10
2015,06,21,16,55,24.10
2015,06,21,16,56,24.20
2015,06,21,16,57,24.20
2015,06,21,16,58,24.20
2015,06,21,16,59,24.10
2015,06,21,17,00,24.10
2015,06,21,17,01,24.10
2015,06,21,17,02,24.10
2015,06,21,17,03,24.00
2015,06,21,17,04,24.00
2015,06,21,17,05,24.00
2015,06,21,17,06,23.80
2015,06,21,17,07,23.70
2015,06,21,17,08,23.50
2015,06,21,17,09,23.40
2015,06,21,17,10,23.30
2015,06,21,17,11,23.20
2015,06,21,17,12,23.20
2015,06,21,17,13,23.10
2015,06,21,17,14,23.10
2015,06,21,17,15,23.10
2015,06,21,17,16,23.10
2015,06,21,17,17,23.00
2015,06,21,17,18,22.80
2015,06,21,17,19,22.70
2015,06,21,17,20,22.60
2015,06,21,17,21,22.60
2015,06,21,17,22,22.60
2015,06,21,17,23,22.60
2015,06,21,17,24,22.60
2015,06,21,17,25,22.60
2015,06,21,17,26,22.70
2015,06,21,17,27,22.70
2015,06,21,17,28,22.70
2015,06,21,17,29,22.80
2015,06,21,17,30,22.80
2015,06,21,17,31,22.80
2015,06,21,17,32,22.80
2015,06,21,17,33,22.80
2015,06,21,17,34,22.80
2015,06,21,17,35,22.80
2015,06,21,17,36,22.80
2015,06,21,17,37,22.60